Location: Newark
(33.6439°N, 114.9881°W)
Time: 04:50:13
(UTC+00:00)

Tiros 1 - Pass Details

Date: 24 July 2019
Orbit: 630 x 664 km, 48.4° (Epoch: 21 August)

Event Time Altitude Azimuth Distance (km) Brightness Sun altitude
Rises 02:45:19 0° 291° (WNW) 2,984 14.0 -0.6°
Reaches altitude 10° 02:48:22 10° 271° (W) 2,063 11.1 -1.1°
Maximum altitude 02:51:26 17° 231° (SW) 1,633 9.6 -1.7°
Drops below altitude 10° 02:54:28 10° 191° (S) 2,043 9.6 -2.3°
Sets 02:57:29 0° 171° (S) 2,941 10.2 -2.8°
